[[{"header":{"parameterUnit":"m.s-1","parameterCategory":1,"la1":30.2991,"la2":30.254,"lo1":-89.0895,"lo2":-89.0444,"dy":0.0017,"dx":0.0017,"nx":28,"ny":28,"refTime":"2024-07-10T21:00:00:Z","depth":0,"parameterNumber":2,"parameterNumberName":"U-component_of_WINDS"},"data":[0,0,0,0,0,0,0,0,0,0,0,0,0,0,0,0,0,0,0,0,0,0,0,0,0,0,0,0,0,0,0,0,0,0,0,0,0,0,0,0,0,0,0,0,0,0,0,0,0,0,0,0,0,0,0,0,0,0,-0.1083,-0.1083,0,-0.1102,-0.1102,-0.1102,-0.1155,-0.1156,-0.1157,-0.1158,-0.1175,-0.1175,-0.1174,0,0,0,0,0,0,0,0,0,0,0,0,0,-0.1089,-0.1088,-0.1083,-0.1083,-0.1083,-0.1102,-0.1102,-0.1103,-0.1154,-0.1156,-0.1157,-0.1158,-0.1176,-0.1175,-0.1174,0,0,0,0,0,0,0,0,0,0,0,0,0,-0.1095,-0.1088,-0.1083,-0.1111,-0.1114,-0.1102,-0.1102,-0.1103,-0.1154,-0.1156,-0.1157,-0.1159,-0.1176,-0.1175,-0.1174,-0.1135,0,0,-0.1171,-0.1171,0,0,0,0,0,0,0,0,-0.1094,-0.1094,-0.1107,-0.1109,-0.1113,-0.1128,-0.1111,-0.1113,-0.1154,-0.1139,-0.1158,-0.116,-0.1158,-0.1159,-0.1159,-0.1136,-0.1137,-0.1171,-0.1171,-0.1171,-0.117,0,0,0,0,0,0,0,-0.1094,-0.1094,-0.109,-0.1107,-0.111,-0.1123,-0.1125,-0.1112,-0.1139,-0.114,-0.1144,-0.1146,-0.116,-0.1159,-0.1159,-0.1137,-0.1171,-0.1171,-0.117,-0.117,-0.1083,-0.1081,0,0,0,0,0,0,-0.109,-0.1093,-0.109,-0.1091,-0.1107,-0.1121,-0.1124,-0.1121,-0.1139,-0.1143,-0.1144,-0.1148,-0.116,-0.116,-0.116,-0.1116,-0.1171,-0.117,-0.1169,-0.1085,-0.1083,-0.1081,0,0,0,0,0,0,-0.109,-0.1089,-0.1089,-0.1093,-0.1094,-0.1119,-0.1115,-0.1121,-0.112,-0.1142,-0.1147,-0.1139,-0.1161,-0.1161,-0.1141,-0.1117,-0.1169,-0.1169,-0.1087,-0.1084,-0.1082,-0.1027,0,0,0,0,0,0,-0.1089,-0.1088,-0.1074,-0.1092,-0.1094,-0.107,-0.1114,-0.112,-0.1119,-0.1124,-0.1138,-0.1142,-0.1163,-0.1142,-0.114,-0.1117,-0.1168,-0.1089,-0.1086,-0.1082,-0.1031,-0.1023,-0.1016,0,0,0,0,0,-0.109,-0.1058,-0.1074,-0.1073,-0.1077,-0.1069,-0.1069,-0.1094,-0.1117,-0.1102,-0.1116,-0.1142,-0.112,-0.114,-0.1138,-0.1114,-0.1091,-0.1087,-0.1083,-0.1034,-0.1024,-0.1016,0,0,0,0,0,0,-0.1036,-0.1061,-0.1078,-0.1052,-0.1058,-0.1077,-0.1061,-0.1082,-0.1082,-0.1086,-0.1116,-0.1119,-0.1095,-0.1102,-0.1124,-0.1077,-0.1109,-0.1105,-0.1073,-0.1064,-0.1056,-0.1056,-0.1167,0,0,0,0,0,-0.1021,-0.1013,-0.1035,-0.1009,-0.1011,-0.1035,-0.1032,-0.1051,-0.1058,-0.1061,-0.1073,-0.1079,-0.1073,-0.1069,-0.1065,-0.1032,-0.1036,-0.1015,-0.1007,-0.1001,-0.0997,-0.098,-0.0971,-0.1067,-0.1067,-0.1068,0,0,-0.099,-0.1003,-0.0996,-0.0999,-0.1006,-0.0996,-0.1037,-0.1025,-0.1018,-0.1059,-0.1041,-0.105,-0.1058,-0.1031,-0.102,-0.1037,-0.0971,-0.0995,-0.099,-0.099,-0.0975,-0.0966,-0.0958,-0.1065,-0.1065,-0.1066,0,0,-0.0929,-0.0938,-0.0918,-0.0924,-0.0934,-0.095,-0.0944,-0.0961,-0.0969,-0.0951,-0.0981,-0.0973,-0.0963,-0.0967,-0.0968,-0.0908,-0.0931,-0.0906,-0.0866,-0.0849,-0.0842,-0.0835,-0.0814,-0.0806,-0.0901,-0.0901,-0.0901,0,-0.0889,-0.0877,-0.0904,-0.0891,-0.0891,-0.0927,-0.0907,-0.0911,-0.0919,-0.0918,-0.0936,-0.0924,-0.0932,-0.0907,-0.0893,-0.0892,-0.0887,-0.0905,-0.0841,-0.0834,-0.0829,-0.0809,-0.0801,-0.0898,-0.0898,-0.0899,-0.0899,0,-0.0828,-0.0819,-0.0801,-0.0809,-0.0807,-0.0789,-0.0813,-0.0808,-0.0826,-0.084,-0.0821,-0.0832,-0.0831,-0.0826,-0.0843,-0.0803,-0.0813,-0.0836,-0.0869,-0.0816,-0.0798,-0.0791,-0.0894,-0.0895,-0.0896,-0.0896,0,0,-0.0735,-0.0757,-0.075,-0.0754,-0.0768,-0.0761,-0.0745,-0.0744,-0.0739,-0.0743,-0.073,-0.072,-0.0741,-0.0742,-0.076,-0.0746,-0.0698,-0.077,-0.0771,-0.0757,-0.0655,-0.0638,-0.0629,-0.0713,-0.0712,-0.0711,-0.0654,0,-0.0678,-0.0654,-0.0677,-0.0647,-0.0639,-0.0673,-0.0659,-0.0665,-0.0677,-0.0672,-0.0685,-0.0678,-0.0705,-0.0706,-0.0693,-0.0706,-0.0678,-0.0711,-0.0702,-0.0701,-0.07,-0.062,-0.0603,-0.0549,-0.0647,-0.0646,-0.0645,0,-0.0609,-0.0611,-0.058,-0.0596,-0.0593,-0.058,-0.0582,-0.0576,-0.0583,-0.0593,-0.0593,-0.0615,-0.06,-0.0632,-0.0611,-0.0633,-0.063,-0.0636,-0.0635,-0.0636,-0.0671,-0.062,-0.0533,-0.0525,-0.0635,-0.0635,-0.0636,0,-0.0545,-0.0539,-0.0521,-0.0523,-0.054,-0.053,-0.0536,-0.0546,-0.0544,-0.0544,-0.0544,-0.0542,-0.0541,-0.0539,-0.056,-0.0581,-0.0537,-0.057,-0.0545,-0.0544,-0.0535,-0.0535,-0.0447,-0.0531,-0.0531,-0.0531,-0.0531,0,-0.048,-0.0461,-0.0492,-0.0481,-0.046,-0.0486,-0.0464,-0.0474,-0.0481,-0.0472,-0.0501,-0.0491,-0.0518,-0.0511,-0.0527,-0.0508,-0.0507,-0.0514,-0.0519,-0.0513,-0.0512,-0.0512,-0.0517,-0.0529,-0.053,-0.053,-0.053,0,-0.0406,-0.0426,-0.0408,-0.0426,-0.043,-0.0413,-0.0428,-0.0418,-0.0432,-0.0419,-0.0418,-0.0439,-0.0432,-0.0452,-0.0448,-0.0459,-0.0431,-0.0441,-0.0429,-0.0433,-0.0406,-0.0409,-0.0317,-0.0306,-0.0395,-0.0394,-0.0393,0,-0.0364,-0.035,-0.0366,-0.0362,-0.0367,-0.036,-0.0359,-0.0384,-0.0381,-0.0388,-0.0376,-0.0372,-0.037,-0.0358,-0.0372,-0.0369,-0.038,-0.0348,-0.038,-0.0374,-0.0381,-0.0382,-0.0381,-0.0342,-0.0341,-0.034,-0.0339,0,-0.0287,-0.0298,-0.0295,-0.0295,-0.0293,-0.0294,-0.0297,-0.0292,-0.0319,-0.0313,-0.0307,-0.0306,-0.0302,-0.0297,-0.0298,-0.0304,-0.0325,-0.0328,-0.0323,-0.0317,-0.0311,-0.0314,-0.0412,-0.0331,-0.0332,-0.0332,-0.0333,-0.0333,-0.0228,-0.0218,-0.0227,-0.0223,-0.0228,-0.023,-0.0222,-0.0234,-0.023,-0.0229,-0.0243,-0.0234,-0.0241,-0.0244,-0.0248,-0.024,-0.0255,-0.0246,-0.0244,-0.0242,-0.0238,-0.031,-0.024,-0.0241,-0.0241,-0.0241,-0.0241,0,-0.0154,-0.0162,-0.0157,-0.0161,-0.0158,-0.0179,-0.0183,-0.0179,-0.017,-0.0175,-0.0173,-0.0166,-0.0161,-0.0175,-0.0172,-0.0164,-0.0174,-0.0162,-0.0164,-0.0165,-0.0225,-0.0231,-0.0154,-0.0154,-0.0154,-0.0154,-0.0154,-0.0154,-0.0115,-0.0098,-0.0109,-0.0095,-0.0103,-0.0094,-0.0095,-0.0097,-0.0101,-0.0092,-0.0089,-0.0098,-0.0106,-0.0105,-0.0101,-0.0105,-0.0103,-0.0088,-0.0096,-0.0152,-0.0161,-0.0169,-0.0174,-0.0088,-0.0087,-0.0037,-0.0037,-0.0036]},{"header":{"parameterUnit":"m.s-1","parameterCategory":1,"la1":30.2991,"la2":30.254,"lo1":-89.0895,"lo2":-89.0444,"dy":0.0017,"dx":0.0017,"nx":28,"ny":28,"refTime":"2024-07-10T21:00:00:Z","depth":0,"parameterNumber":3,"parameterNumberName":"V-component_of_WINDS"},"data":[0,0,0,0,0,0,0,0,0,0,0,0,0,0,0,0,0,0,0,0,0,0,0,0,0,0,0,0,0,0,0,0,0,0,0,0,0,0,0,0,0,0,0,0,0,0,0,0,0,0,0,0,0,0,0,0,0,0,-1.3973,-1.3973,0,-1.4001,-1.4002,-1.4002,-1.3994,-1.3994,-1.3993,-1.3993,-1.4021,-1.4022,-1.4023,0,0,0,0,0,0,0,0,0,0,0,0,0,-1.3912,-1.3913,-1.3973,-1.3973,-1.3974,-1.4001,-1.4002,-1.4002,-1.3995,-1.3994,-1.3993,-1.3993,-1.402,-1.4022,-1.4023,0,0,0,0,0,0,0,0,0,0,0,0,0,-1.3939,-1.3913,-1.3973,-1.3973,-1.3974,-1.4001,-1.4002,-1.4002,-1.3995,-1.3994,-1.3993,-1.3992,-1.402,-1.4022,-1.4024,-1.4052,0,0,-1.4029,-1.403,0,0,0,0,0,0,0,0,-1.3938,-1.3941,-1.3973,-1.3973,-1.3974,-1.3994,-1.3991,-1.4019,-1.3995,-1.3987,-1.3993,-1.3992,-1.4012,-1.4015,-1.4022,-1.4054,-1.4055,-1.4029,-1.4031,-1.4031,-1.4032,0,0,0,0,0,0,0,-1.3936,-1.394,-1.3984,-1.3973,-1.3974,-1.3972,-1.3975,-1.3996,-1.4004,-1.3987,-1.3987,-1.399,-1.4012,-1.402,-1.4022,-1.4055,-1.4029,-1.4031,-1.4032,-1.4033,-1.4114,-1.4115,0,0,0,0,0,0,-1.3934,-1.3939,-1.3983,-1.3985,-1.3953,-1.3974,-1.3977,-1.3988,-1.4004,-1.4005,-1.3991,-1.399,-1.4017,-1.402,-1.4023,-1.406,-1.4031,-1.4033,-1.4034,-1.4113,-1.4115,-1.4116,0,0,0,0,0,0,-1.3932,-1.3938,-1.3982,-1.3962,-1.3967,-1.3976,-1.3988,-1.3989,-1.3997,-1.4006,-1.4008,-1.3998,-1.4017,-1.4021,-1.4046,-1.4061,-1.4034,-1.4036,-1.4112,-1.4114,-1.4115,-1.4133,0,0,0,0,0,0,-1.3931,-1.3937,-1.3948,-1.3962,-1.3968,-1.4004,-1.3989,-1.399,-1.4,-1.3999,-1.4013,-1.4014,-1.4016,-1.4043,-1.4048,-1.4063,-1.4037,-1.4111,-1.4113,-1.4115,-1.4131,-1.4135,-1.4138,0,0,0,0,0,-1.3928,-1.3951,-1.3949,-1.3954,-1.3982,-1.4005,-1.4008,-1.4011,-1.4001,-1.4013,-1.4019,-1.4014,-1.4058,-1.4046,-1.4051,-1.4067,-1.411,-1.4112,-1.4115,-1.4129,-1.4134,-1.4138,0,0,0,0,0,0,-1.3938,-1.3953,-1.395,-1.3978,-1.3991,-1.4004,-1.4018,-1.4015,-1.403,-1.4028,-1.403,-1.4033,-1.4059,-1.4065,-1.4051,-1.4097,-1.4083,-1.4086,-1.4092,-1.4097,-1.41,-1.4099,-1.4039,0,0,0,0,0,-1.3943,-1.396,-1.3972,-1.3996,-1.4002,-1.4009,-1.4019,-1.402,-1.4032,-1.4037,-1.4045,-1.4058,-1.4075,-1.4086,-1.4101,-1.4131,-1.4135,-1.4145,-1.4149,-1.4151,-1.4155,-1.4173,-1.4178,-1.4123,-1.4123,-1.4123,0,0,-1.3954,-1.3965,-1.3975,-1.3998,-1.4008,-1.4026,-1.4013,-1.4033,-1.4047,-1.404,-1.4065,-1.4072,-1.4085,-1.4114,-1.4126,-1.412,-1.4171,-1.4154,-1.4157,-1.4158,-1.4176,-1.4181,-1.4186,-1.4125,-1.4125,-1.4124,0,0,-1.3984,-1.3993,-1.4015,-1.4025,-1.404,-1.4045,-1.405,-1.4064,-1.4069,-1.4094,-1.409,-1.4106,-1.4135,-1.4146,-1.4155,-1.4191,-1.4187,-1.4196,-1.4215,-1.4233,-1.4237,-1.4241,-1.4256,-1.4261,-1.4199,-1.4199,-1.4199,0,-1.3996,-1.4024,-1.4026,-1.4047,-1.4058,-1.4053,-1.4076,-1.4086,-1.4105,-1.4113,-1.4105,-1.4142,-1.4151,-1.4183,-1.4192,-1.4199,-1.4206,-1.4195,-1.4236,-1.424,-1.4244,-1.4258,-1.4264,-1.42,-1.42,-1.42,-1.42,0,-1.4039,-1.4058,-1.4074,-1.4094,-1.4107,-1.4128,-1.4134,-1.4146,-1.4146,-1.4152,-1.4179,-1.4189,-1.4208,-1.4215,-1.4215,-1.4248,-1.4244,-1.4236,-1.4222,-1.4251,-1.4264,-1.4269,-1.4202,-1.4201,-1.4201,-1.4201,0,0,-1.4075,-1.4098,-1.4104,-1.4114,-1.4131,-1.4146,-1.4168,-1.4187,-1.4199,-1.4212,-1.4232,-1.4257,-1.4251,-1.4261,-1.4262,-1.4278,-1.4308,-1.4268,-1.4269,-1.4277,-1.4348,-1.4355,-1.4361,-1.4306,-1.4307,-1.4307,-1.4347,0,-1.4108,-1.4147,-1.4151,-1.4186,-1.4205,-1.4202,-1.4221,-1.4234,-1.424,-1.4257,-1.4264,-1.4283,-1.4272,-1.4279,-1.4294,-1.4301,-1.4323,-1.4298,-1.4325,-1.4325,-1.4323,-1.4368,-1.4375,-1.4412,-1.4352,-1.4353,-1.4354,0,-1.4152,-1.4169,-1.4207,-1.4223,-1.4231,-1.4249,-1.4268,-1.4284,-1.4299,-1.4302,-1.4315,-1.4314,-1.4338,-1.4322,-1.4355,-1.4338,-1.4349,-1.4354,-1.4356,-1.436,-1.4343,-1.4375,-1.4424,-1.443,-1.4362,-1.4361,-1.4361,0,-1.4178,-1.4209,-1.4237,-1.4245,-1.4265,-1.4277,-1.4286,-1.43,-1.4312,-1.4329,-1.4337,-1.4356,-1.4367,-1.4381,-1.4386,-1.4374,-1.4419,-1.4404,-1.4424,-1.4424,-1.4435,-1.4434,-1.4488,-1.4439,-1.4439,-1.4439,-1.4438,0,-1.4216,-1.4239,-1.4249,-1.4266,-1.4293,-1.4296,-1.4323,-1.4331,-1.4344,-1.4363,-1.436,-1.4378,-1.4382,-1.4401,-1.4404,-1.4432,-1.4436,-1.4441,-1.4442,-1.4442,-1.4442,-1.445,-1.4448,-1.444,-1.444,-1.4439,-1.4439,0,-1.4249,-1.4256,-1.4286,-1.4303,-1.4308,-1.4327,-1.4341,-1.4358,-1.4364,-1.4388,-1.4394,-1.4404,-1.4426,-1.4432,-1.4457,-1.446,-1.4494,-1.4491,-1.4489,-1.449,-1.451,-1.4509,-1.4573,-1.4582,-1.4525,-1.4525,-1.4526,0,-1.4274,-1.4292,-1.4311,-1.4324,-1.4334,-1.4354,-1.4368,-1.4372,-1.4386,-1.4406,-1.442,-1.4442,-1.446,-1.4496,-1.4505,-1.4526,-1.4525,-1.4546,-1.4528,-1.4528,-1.4528,-1.4527,-1.453,-1.455,-1.455,-1.4551,-1.4551,0,-1.4317,-1.432,-1.434,-1.4361,-1.4377,-1.4393,-1.4409,-1.442,-1.4427,-1.4442,-1.4466,-1.448,-1.4507,-1.453,-1.4551,-1.456,-1.4557,-1.4557,-1.4563,-1.4564,-1.4563,-1.4566,-1.4501,-1.4555,-1.4555,-1.4555,-1.4554,-1.4554,-1.4348,-1.4366,-1.4383,-1.4405,-1.4417,-1.4433,-1.445,-1.4459,-1.4479,-1.4503,-1.4504,-1.4529,-1.4546,-1.4574,-1.4584,-1.4604,-1.4598,-1.4606,-1.4609,-1.4612,-1.4615,-1.4559,-1.4608,-1.4608,-1.4608,-1.4608,-1.4607,0,-1.4394,-1.4405,-1.4425,-1.4448,-1.4466,-1.4462,-1.448,-1.4496,-1.4519,-1.4534,-1.4552,-1.458,-1.4602,-1.4614,-1.4636,-1.4651,-1.465,-1.4657,-1.4657,-1.4659,-1.4618,-1.4611,-1.4657,-1.4657,-1.4657,-1.4657,-1.4657,-1.4657,-1.4419,-1.4449,-1.4455,-1.4491,-1.4502,-1.4528,-1.4539,-1.4554,-1.4566,-1.4598,-1.4617,-1.4624,-1.4639,-1.4663,-1.4683,-1.4686,-1.4695,-1.4703,-1.4705,-1.4667,-1.4662,-1.4657,-1.4651,-1.4704,-1.4704,-1.4745,-1.4746,-1.4746]}]]